Date String (YYYY-MM-DD hh:mm:ss) UTC,Instrument flags,Ambient pressure (hPa),Sample flow (lpm),Bypass flow (lpm),Sample temperature (°C),Ambient temperature (°C),ASC tube jacket temperature (°C),LED temperature (°C),Box temperature (°C),Sample RH (%),Span deviation,Mass concentration (μg/m³),Mass concentration (μg/m³),Mass concentration (μg/m³)
DateTimeUTC,F1_M11,P_M11,Q1_M11,Q2_M11,T1_M11,T2_M11,T3_M11,T4_M11,T5_M11,U1_M11,ZSPAN_M11,X0_M11,X2_M11,X1_M11
2022-02-26 18:00:00,,0831.6,5.00,0.00,22.9,22.2,00.0,31.8,24.8,07.3,0000.4,0015.29,0010.72,0010.07
2022-02-26 18:01:00,,0831.6,5.01,0.00,22.9,22.2,00.0,31.8,24.8,07.3,0000.9,0015.15,0010.67,0010.05
2022-02-26 18:02:00,,0831.5,5.00,0.00,22.9,22.2,00.0,31.8,24.8,07.4,0001.2,0015.14,0010.62,0010.01
2022-02-26 18:03:00,,0831.5,4.99,0.00,23.0,22.2,00.0,31.8,24.8,07.2,0001.4,0015.70,0010.60,0010.00
2022-02-26 18:04:00,,0831.6,5.00,0.00,23.0,22.2,00.0,31.8,24.8,07.1,0001.4,0015.79,0010.63,0009.99
2022-02-26 18:05:00,,0831.6,5.01,0.00,23.0,22.3,00.0,31.9,24.8,07.2,0001.6,0015.85,0010.66,0009.99
2022-02-26 18:06:00,,0831.6,5.01,0.00,23.0,22.3,00.0,31.9,24.8,07.3,0001.4,0015.65,0010.69,0009.98
2022-02-26 18:07:00,,0831.6,5.00,0.00,23.0,22.3,00.0,31.9,24.8,07.2,0001.6,0015.66,0010.68,0009.95
2022-02-26 18:08:00,,0831.5,4.99,0.00,23.0,22.3,00.0,31.9,24.9,07.5,0001.7,0015.87,0010.70,0009.95
2022-02-26 18:09:00,,0831.5,5.01,0.00,23.0,22.4,00.0,31.9,24.9,07.5,0001.4,0015.85,0010.70,0009.95
2022-02-26 18:10:00,,0831.5,4.99,0.00,23.1,22.4,00.0,31.9,24.9,07.3,0001.3,0015.53,0010.66,0009.94
2022-02-26 18:11:00,,0831.5,5.00,0.00,23.1,22.4,00.0,31.9,24.9,07.2,0001.4,0015.44,0010.58,0009.89
2022-02-26 18:12:00,,0831.6,5.00,0.00,23.1,22.4,00.0,31.9,24.9,07.3,0001.0,0015.48,0010.55,0009.87
2022-02-26 18:13:00,,0831.6,5.01,0.00,23.1,22.5,00.0,32.0,25.0,07.2,0000.6,0015.59,0010.58,0009.89
2022-02-26 18:14:00,,0831.6,5.00,0.00,23.1,22.5,00.0,32.0,25.0,07.2,0000.5,0015.22,0010.62,0009.90
2022-02-26 18:15:00,,0831.5,5.00,0.00,23.2,22.5,00.0,32.0,25.0,07.2,0000.5,0015.32,0010.62,0009.90
2022-02-26 18:16:00,,0831.5,5.00,0.00,23.2,22.5,00.0,32.0,25.0,07.2,0000.5,0015.48,0010.67,0009.90
2022-02-26 18:17:00,,0831.6,5.00,0.00,23.2,22.5,00.0,32.0,25.0,07.3,0000.6,0015.41,0010.65,0009.91
2022-02-26 18:18:00,,0831.6,5.00,0.00,23.2,22.6,00.0,32.1,25.1,07.2,0000.2,0015.25,0010.62,0009.91
2022-02-26 18:19:00,,0831.6,5.00,0.00,23.2,22.6,00.0,32.1,25.1,07.5,-000.1,0015.00,0010.59,0009.89
2022-02-26 18:20:00,,0831.5,5.00,0.00,23.3,22.6,00.0,32.1,25.1,07.3,0000.1,0014.91,0010.59,0009.90
2022-02-26 18:21:00,,0831.4,5.00,0.00,23.3,22.5,00.0,32.1,25.1,07.2,0000.2,0014.94,0010.60,0009.92
2022-02-26 18:22:00,,0831.4,5.00,0.00,23.2,22.5,00.0,32.1,25.1,07.4,0000.1,0015.26,0010.69,0009.97
2022-02-26 18:23:00,,0831.4,4.99,0.00,23.2,22.4,00.0,32.1,25.1,07.1,0000.5,0015.28,0010.76,0010.03
2022-02-26 18:24:00,,0831.4,5.01,0.00,23.2,22.5,00.0,32.1,25.1,07.3,0000.6,0015.30,0010.84,0010.10
2022-02-26 18:25:00,,0831.4,5.02,0.00,23.2,22.4,00.0,32.1,25.1,07.3,0000.9,0015.28,0010.89,0010.18
2022-02-26 18:26:00,,0831.4,5.00,0.00,23.2,22.4,00.0,32.1,25.0,07.3,0000.8,0015.02,0010.92,0010.22
2022-02-26 18:27:00,,0831.4,4.99,0.00,23.2,22.4,00.0,32.1,25.0,07.2,0000.7,0014.97,0010.94,0010.27
2022-02-26 18:28:00,,0831.4,5.01,0.00,23.2,22.4,00.0,32.1,25.0,07.2,0000.4,0015.01,0010.98,0010.31
2022-02-26 18:29:00,,0831.4,5.01,0.00,23.2,22.3,00.0,32.1,24.9,07.2,0000.6,0015.09,0011.02,0010.34
2022-02-26 18:30:00,,0831.4,5.00,0.00,23.2,22.3,00.0,32.1,24.9,07.1,0000.9,0015.13,0011.03,0010.36
2022-02-26 18:31:00,,0831.4,5.00,0.00,23.2,22.3,00.0,32.1,25.0,07.1,0000.9,0015.23,0011.01,0010.35
2022-02-26 18:32:00,,0831.4,5.00,0.00,23.2,22.3,00.0,32.1,25.0,07.4,0001.0,0015.18,0011.01,0010.36
2022-02-26 18:33:00,,0831.4,5.01,0.00,23.2,22.3,00.0,32.1,25.0,07.4,0001.2,0014.93,0011.06,0010.41
2022-02-26 18:34:00,,0831.4,5.00,0.00,23.1,22.3,00.0,32.1,25.0,07.0,0000.9,0014.96,0011.10,0010.43
2022-02-26 18:35:00,,0831.4,5.00,0.00,23.1,22.3,00.0,32.1,24.9,07.2,0000.9,0014.90,0011.11,0010.45
2022-02-26 18:36:00,,0831.3,5.00,0.00,23.1,22.3,00.0,32.1,24.9,07.2,0000.5,0014.98,0011.11,0010.47
2022-02-26 18:37:00,,0831.2,4.99,0.00,23.1,22.3,00.0,32.1,24.9,07.1,0000.7,0015.57,0011.17,0010.50
2022-02-26 18:38:00,,0831.2,5.01,0.00,23.1,22.3,00.0,32.1,24.9,07.5,0000.6,0015.47,0011.14,0010.49
2022-02-26 18:39:00,,0831.2,5.00,0.00,23.1,22.3,00.0,32.1,24.9,07.2,0000.8,0015.40,0011.12,0010.49
2022-02-26 18:40:00,,0831.2,5.00,0.00,23.1,22.3,00.0,32.1,24.9,07.1,0000.9,0015.32,0011.14,0010.50
2022-02-26 18:41:00,,0831.2,4.99,0.00,23.1,22.3,00.0,32.1,24.9,07.0,0000.4,0015.30,0011.15,0010.52
2022-02-26 18:42:00,,0831.2,5.00,0.00,23.1,22.3,00.0,32.1,24.9,07.0,-000.2,0015.20,0011.18,0010.55
2022-02-26 18:43:00,,0831.2,5.00,0.00,23.1,22.2,00.0,32.1,24.9,07.1,-000.3,0015.22,0011.20,0010.56
2022-02-26 18:44:00,,0831.2,4.99,0.00,23.0,22.2,00.0,32.1,24.9,07.3,-000.6,0015.12,0011.14,0010.54
2022-02-26 18:45:00,,0831.1,5.01,0.00,23.0,22.1,00.0,32.1,24.8,07.2,-000.5,0015.13,0011.14,0010.53
2022-02-26 18:46:00,,0831.2,4.99,0.00,23.0,22.1,00.0,32.0,24.8,07.0,-000.5,0015.20,0011.06,0010.49
2022-02-26 18:47:00,,0831.2,5.00,0.00,23.0,22.1,00.0,32.0,24.8,07.1,-000.2,0015.33,0011.06,0010.44
2022-02-26 18:48:00,,0831.2,5.00,0.00,23.0,22.1,00.0,32.0,24.8,06.9,-000.2,0014.91,0011.04,0010.40
2022-02-26 18:49:00,,0831.2,4.99,0.00,23.0,22.2,00.0,32.0,24.8,07.0,-000.0,0015.02,0011.06,0010.38
2022-02-26 18:50:00,,0831.2,5.00,0.00,23.0,22.2,00.0,32.0,24.8,07.1,0000.0,0014.97,0011.03,0010.35
2022-02-26 18:51:00,,0831.2,4.99,0.00,23.0,22.3,00.0,32.0,24.9,07.2,0000.3,0016.36,0011.04,0010.34
2022-02-26 18:52:00,,0831.2,5.00,0.00,23.1,22.3,00.0,32.0,24.9,07.1,0000.5,0016.57,0011.02,0010.31
2022-02-26 18:53:00,,0831.3,5.00,0.00,23.1,22.3,00.0,32.0,24.9,07.1,0000.8,0016.61,0010.98,0010.26
2022-02-26 18:54:00,,0831.3,5.00,0.00,23.1,22.4,00.0,32.0,24.9,06.9,0000.7,0016.69,0010.95,0010.22
2022-02-26 18:55:00,,0831.2,5.00,0.00,23.1,22.4,00.0,32.0,24.9,07.0,0000.9,0016.69,0010.92,0010.16
2022-02-26 18:56:00,,0831.3,5.00,0.00,23.1,22.4,00.0,32.0,24.9,06.6,0000.9,0016.61,0010.81,0010.06
2022-02-26 18:57:00,,0831.3,5.00,0.00,23.1,22.4,00.0,32.0,24.9,06.4,0000.6,0017.23,0010.72,0009.97
2022-02-26 18:58:00,,0831.4,5.00,0.00,23.1,22.4,00.0,32.0,24.9,06.6,0000.6,0017.75,0010.63,0009.90
2022-02-26 18:59:00,,0831.4,5.00,0.00,23.1,22.5,00.0,32.0,25.0,06.6,0000.7,0017.64,0010.56,0009.86
